Pineville, WV

4:28 AM EST on November 23, 2017 (GMT -0500)
Pineville

Weather History for KI16 - April, 2012

Change the Weather History Date:

Monday, April 30, 2012

  Actual Average (KBKW) Record (KBKW)
Temperature  
Mean Temperature 71 °F -  
Max Temperature 88 °F 68 °F 86 °F (1899)
Min Temperature 54 °F 46 °F 28 °F (2008)
Cooling Degree Days 6    
Growing Degree Days 21 (Base 50)    
Moisture  
Dew Point 59 °F    
Average Humidity 73    
Maximum Humidity 100    
Minimum Humidity 38    
Precipitation  
Precipitation 0.00 in - - ()
Sea Level Pressure  
Sea Level Pressure 30.17 in    
Wind  
Wind Speed - (North)    
Max Wind Speed -    
Max Gust Speed -    
Visibility 8 miles    
Events      
Averages and records for this station are not official NWS values.
T = Trace of Precipitation, MM = Missing Value Source: NWS Daily Summary

Daily Weather History Graph

Daily Weather History Graph

Search for Another Location

Airport or City:

Trip Planner

Search our weather history database for the weather conditions in past years. The results will help you decide how hot, cold, wet, or windy it might be!

Date:

Astronomy

Apr. 30, 2012 Rise Set
Actual Time 6:31 AM EDT 8:15 PM EDT
Civil Twilight 6:03 AM EDT 8:44 PM EDT
Nautical Twilight 5:29 AM EDT 9:18 PM EDT
Astronomical Twilight 4:53 AM EDT 9:54 PM EDT
Moon 2:18 PM EDT (4/30) 2:47 AM EDT (4/30)
Length of Visible Light 14h 40m
Length of Day
13h 44m
Waxing Gibbous, 63% of the Moon is Illuminated
Apr 30
Waxing Gibbous
May 5
Full
May 12
Last Quarter
May 20
New
May 28
First Quarter

Hourly Weather History & Observations

Time (EDT) Temp. Heat Index Dew Point Humidity Pressure Visibility Wind Dir Wind Speed Gust Speed Precip Events Conditions
12:15 AM 59.0 °F - 59.0 °F 100% 30.22 in 7.0 mi North - - N/A   Clear
12:35 AM 58.8 °F - 58.6 °F 99% 30.22 in 7.0 mi North - - N/A   Clear
12:55 AM 58.6 °F - 58.6 °F 100% 30.22 in 7.0 mi North - - N/A   Scattered Clouds
1:15 AM 58.3 °F - 58.3 °F 100% 30.21 in 5.0 mi North - - N/A   Clear
1:35 AM 58.5 °F - 58.5 °F 100% 30.21 in 7.0 mi North - - N/A   Clear
1:55 AM 58.1 °F - 58.1 °F 100% 30.20 in 5.0 mi North - - N/A   Clear
2:15 AM 57.6 °F - 57.6 °F 100% 30.20 in 4.0 mi North - - N/A   Clear
2:35 AM 57.4 °F - 57.4 °F 100% 30.20 in 4.0 mi North - - N/A   Clear
2:55 AM 57.2 °F - 57.2 °F 100% 30.19 in 4.0 mi North - - N/A   Clear
3:15 AM 56.8 °F - 56.8 °F 100% 30.19 in 4.0 mi North - - N/A   Clear
3:35 AM 56.7 °F - 56.7 °F 100% 30.20 in 5.0 mi North - - N/A   Clear
3:55 AM 56.3 °F - 56.3 °F 100% 30.20 in 5.0 mi North - - N/A   Clear
4:15 AM 56.3 °F - 56.3 °F 100% 30.20 in 5.0 mi North - - N/A   Clear
4:35 AM 56.3 °F - 56.3 °F 100% 30.20 in 3.0 mi North - - N/A   Clear
4:55 AM 55.9 °F - 55.9 °F 100% 30.20 in 3.0 mi North - - N/A   Clear
5:15 AM 55.6 °F - 55.6 °F 100% 30.21 in 3.0 mi North - - N/A   Clear
5:35 AM 55.4 °F - 55.4 °F 100% 30.21 in 5.0 mi North - - N/A   Clear
5:55 AM 55.4 °F - 55.4 °F 100% 30.21 in 4.0 mi North - - N/A   Clear
6:15 AM 54.9 °F - 54.9 °F 100% 30.22 in 4.0 mi North - - N/A   Clear
6:35 AM 54.7 °F - 54.7 °F 100% 30.23 in 4.0 mi North - - N/A   Clear
6:55 AM 54.7 °F - 54.7 °F 100% 30.23 in 3.0 mi North - - N/A   Clear
7:15 AM 54.9 °F - 54.9 °F 100% 30.23 in 4.0 mi North - - N/A   Clear
7:35 AM 55.6 °F - 55.6 °F 100% 30.23 in 4.0 mi North - - N/A   Clear
7:55 AM 56.7 °F - 56.7 °F 100% 30.24 in 7.0 mi North - - N/A   Clear
8:15 AM 58.1 °F - 58.1 °F 100% 30.25 in 10.0 mi North - - N/A   Clear
8:35 AM 60.1 °F - 60.1 °F 100% 30.24 in 10.0 mi North - - N/A   Clear
8:55 AM 62.2 °F - 61.9 °F 99% 30.24 in 10.0 mi North - - N/A   Clear
9:15 AM 67.3 °F - 63.5 °F 88% 30.24 in 10.0 mi North - - N/A   Clear
9:35 AM 70.0 °F - 63.7 °F 80% 30.23 in 10.0 mi North - - N/A   Clear
9:55 AM 73.0 °F - 64.0 °F 73% 30.23 in 10.0 mi North - - N/A   Clear
10:15 AM 75.2 °F - 64.6 °F 69% 30.23 in 10.0 mi North - - N/A   Clear
10:35 AM 76.5 °F - 64.4 °F 66% 30.23 in 10.0 mi North - - N/A   Clear
10:55 AM 79.3 °F - 64.8 °F 61% 30.22 in 10.0 mi North - - N/A   Clear
11:15 AM 79.9 °F - 63.5 °F 57% 30.22 in 10.0 mi North - - N/A   Scattered Clouds
11:35 AM 81.0 °F 82.5 °F 63.9 °F 56% 30.21 in 10.0 mi North - - N/A   Scattered Clouds
11:55 AM 81.0 °F 82.5 °F 63.9 °F 56% 30.20 in 10.0 mi North - - N/A   Scattered Clouds
12:15 PM 81.7 °F 82.9 °F 62.8 °F 53% 30.19 in 10.0 mi North - - N/A   Mostly Cloudy
12:35 PM 82.9 °F 83.7 °F 62.1 °F 49% 30.18 in 10.0 mi North - - N/A   Mostly Cloudy
12:55 PM 82.9 °F 83.7 °F 61.7 °F 49% 30.17 in 10.0 mi North - - N/A   Scattered Clouds
1:15 PM 83.3 °F 83.9 °F 61.5 °F 48% 30.16 in 10.0 mi North - - N/A   Scattered Clouds
1:35 PM 84.2 °F 84.4 °F 60.6 °F 45% 30.16 in 10.0 mi North - - N/A   Clear
1:55 PM 84.7 °F 84.6 °F 60.3 °F 43% 30.15 in 10.0 mi North - - N/A   Scattered Clouds
2:15 PM 85.1 °F 85.0 °F 60.3 °F 43% 30.15 in 10.0 mi North - - N/A   Scattered Clouds
2:35 PM 86.4 °F 86.3 °F 60.6 °F 42% 30.14 in 10.0 mi North - - N/A   Scattered Clouds
2:55 PM 85.6 °F 85.0 °F 59.0 °F 40% 30.13 in 10.0 mi North - - N/A   Scattered Clouds
3:15 PM 86.7 °F 86.3 °F 59.9 °F 40% 30.12 in 10.0 mi North - - N/A   Scattered Clouds
3:35 PM 87.6 °F 86.9 °F 59.4 °F 38% 30.11 in 10.0 mi North - - N/A   Scattered Clouds
3:55 PM 87.3 °F 86.7 °F 59.7 °F 39% 30.11 in 10.0 mi North - - N/A   Scattered Clouds
4:15 PM 87.8 °F 87.1 °F 59.5 °F 38% 30.10 in 10.0 mi North - - N/A   Scattered Clouds
4:35 PM 88.2 °F 87.8 °F 60.1 °F 39% 30.10 in 10.0 mi North - - N/A   Scattered Clouds
4:55 PM 86.7 °F 86.3 °F 59.5 °F 40% 30.10 in 10.0 mi North - - N/A   Mostly Cloudy
5:15 PM 86.7 °F 85.9 °F 58.5 °F 38% 30.10 in 10.0 mi North - - N/A   Mostly Cloudy
5:35 PM 85.8 °F 85.0 °F 58.1 °F 39% 30.09 in 10.0 mi North - - N/A   Scattered Clouds
5:55 PM 86.2 °F 85.2 °F 57.7 °F 38% 30.08 in 10.0 mi North - - N/A   Scattered Clouds
6:15 PM 86.2 °F 85.2 °F 57.7 °F 38% 30.08 in 10.0 mi North - - N/A   Clear
6:35 PM 85.5 °F 84.6 °F 57.6 °F 39% 30.07 in 10.0 mi North - - N/A   Clear
6:55 PM 82.2 °F 82.7 °F 60.6 °F 48% 30.08 in 10.0 mi North - - N/A   Clear
7:15 PM 78.1 °F - 61.0 °F 56% 30.07 in 10.0 mi North - - N/A   Clear
7:35 PM 77.5 °F - 61.7 °F 58% 30.08 in 10.0 mi North - - N/A   Clear
7:55 PM 76.8 °F - 61.3 °F 59% 30.09 in 10.0 mi North - - N/A   Scattered Clouds
8:15 PM 72.9 °F - 60.6 °F 65% 30.10 in 10.0 mi North - - N/A   Clear
8:35 PM 71.6 °F - 59.5 °F 66% 30.10 in 10.0 mi North - - N/A   Clear
8:55 PM 70.5 °F - 58.6 °F 66% 30.10 in 10.0 mi North - - N/A   Clear
9:15 PM 69.4 °F - 59.0 °F 69% 30.10 in 10.0 mi North - - N/A   Clear
9:35 PM 68.9 °F - 58.1 °F 68% 30.10 in 10.0 mi North - - N/A   Clear
9:55 PM 67.1 °F - 58.8 °F 75% 30.11 in 10.0 mi North - - N/A   Clear
10:15 PM 66.2 °F - 58.6 °F 77% 30.11 in 10.0 mi North - - N/A   Clear
10:35 PM 65.3 °F - 59.0 °F 80% 30.11 in 10.0 mi North - - N/A   Clear
10:55 PM 64.4 °F - 59.2 °F 83% 30.12 in 10.0 mi North - - N/A   Clear
11:15 PM 64.4 °F - 59.2 °F 83% 30.11 in 10.0 mi North - - N/A   Clear
11:35 PM 63.7 °F - 59.0 °F 85% 30.11 in 10.0 mi North - - N/A   Scattered Clouds
11:55 PM 63.5 °F - 59.4 °F 86% 30.10 in 10.0 mi North - - N/A   Clear